Regional Weather Roundup
Issued by NWS Upton, NY

Current Version | Previous Version | Graphics & Text | Print | Product List | Glossary Off
Versions: 1 2 3 4 5 6 7 8 9 10 11 12 13 14 15 16 17 18 19 20 21 22 23 24 25 26 27 28 29 30 31 32 33 34 35 36 37 38 39 40 41 42 43 44 45 46 47 48 49 50

000
ASUS41 KOKX 171308
RWROKX

REGIONAL WEATHER ROUNDUP
NATIONAL WEATHER SERVICE NEW YORK NY
900 AM EDT TUE OCT 17 2017

NOTE: "FAIR" INDICATES FEW OR NO CLOUDS BELOW 12,000 FEET WITH NO
SIGNIFICANT WEATHER AND/OR OBSTRUCTIONS TO VISIBILITY.

NYZ071-072-176-178-NJZ106-104-171400-
NEW YORK CITY METRO AREA

CITY           SKY/WX    TMP DP  RH WIND       PRES   REMARKS
Central Park   SUNNY     45  35  68 VRB3      30.37R
Bronx Bot Gard   N/A     45  32  61 NE5       30.35F
LaGuardia APRT MOSUNNY   47  33  58 N14       30.35R
Kennedy INTL   MOSUNNY   47  33  58 N14       30.36R
Breezy Point     N/A     45 N/A N/A N14G20      N/A
Newark/Liberty MOSUNNY   47  34  60 N9        30.35R
Teterboro      SUNNY     45  34  65 N5        30.35R
$$

NYZ177-179-078>081-171400-
LONG ISLAND NEW YORK

CITY           SKY/WX    TMP DP  RH WIND       PRES   REMARKS
Jones Beach      N/A     46 N/A N/A N16G22      N/A
Matinecock PT    N/A     46 N/A N/A N15         N/A
Farmingdale    SUNNY     47  31  53 N12       30.34R
MacArthur/ISP  MOSUNNY   48  36  63 N13       30.32R
Shirley        SUNNY     51  37  58 N8        30.33R
Mt Sinai Harb    N/A    N/A N/A N/A N13         N/A
Westhampton    SUNNY     49  32  52 N10G20    30.33R
East Hampton   FAIR      46  34  62 N9G16     30.31R
Montauk        NOT AVBL
$$

NYZ052-065-067-171400-
HUDSON VALLEY

CITY           SKY/WX    TMP DP  RH WIND       PRES   REMARKS
White Plains   MOSUNNY   42  33  70 N9        30.34R
Larchmont Harb   N/A     43 N/A N/A N6          N/A
Croton On Huds   N/A     48 N/A N/A N5          N/A
Newburgh       SUNNY     37  36  93 CALM      30.35R
Montgomery     SUNNY     39  34  82 SE3       30.34R
Poughkeepsie   SUNNY     38  35  89 CALM      30.35R
Albany         MOSUNNY   38  32  79 CALM      30.35R
$$

NJZ001-105-106-008-010-013-015-019>022-104-171400-
NEW JERSEY

CITY           SKY/WX    TMP DP  RH WIND       PRES   REMARKS
Newark/Liberty MOSUNNY   47  34  60 N9        30.35R
Teterboro      SUNNY     45  34  65 N5        30.35R
Caldwell       SUNNY     42  36  79 CALM      30.37R
Somerville     SUNNY     41  36  82 CALM      30.35R
Linden         FAIR      45  33  63 N5        30.37R
Perth Amboy      N/A     45 N/A N/A NE6         N/A
Sussex         SUNNY     38  37  97 CALM      30.35R
Andover          N/A     38  36  92 CALM      30.35R
Trenton        SUNNY     44  34  67 N5        30.35R
Millville      SUNNY     47  37  68 N9        30.35R
Atlantic City  SUNNY     44  35  70 N10       30.34R
Wrightstown    NOT AVBL
Toms River       N/A     42  35  76 N8        30.36
Belmar         SUNNY     45  36  70 NW7       30.36R
$$

PAZ047>061-062-071-171400-
EASTERN PENNSYLVANIA

CITY           SKY/WX    TMP DP  RH WIND       PRES   REMARKS
Philadelphia   SUNNY     46  33  60 N8        30.37R
Allentown      SUNNY     43  33  68 W3        30.37R
Scranton       SUNNY     40  33  76 CALM      30.36R
$$

CTZ002-004>006-009-010-012-RIZ004-006-007-MAZ004-011-015-171400-
SOUTHERN NEW ENGLAND
 IN CT

CITY           SKY/WX    TMP DP  RH WIND       PRES   REMARKS
Bradley INTL   SUNNY     43  32  65 N8        30.33R
Hartford       SUNNY     42  34  73 E3        30.34R
Danbury        SUNNY     44  32  62 N10       30.35R
Wtrbury/Oxford SUNNY     40  32  73 NW5       30.33R
Norwalk Harbor   N/A     41 N/A N/A N14         N/A
Bridgeport     SUNNY     45  33  63 N12       30.34R
Meriden        SUNNY     44  33  65 N6        30.34R
New Haven      MOSUNNY   44  35  70 N8        30.34R
Chester        FAIR      45  32  61 N9        30.32R
Groton         SUNNY     44  33  65 N12       30.31R
Wilimantic     SUNNY     42  34  73 CALM      30.33R

 IN RI

CITY           SKY/WX    TMP DP  RH WIND       PRES   REMARKS
Providence     MOSUNNY   44  34  67 N12       30.31R
Block Island   SUNNY     46  36  68 N10G18    30.30R
Westerly       SUNNY     45  32  60 N7        30.31R
 IN MA

CITY           SKY/WX    TMP DP  RH WIND       PRES   REMARKS
Boston         MOSUNNY   45  33  63 NW10      30.30R
Worcester      SUNNY     40  27  59 NW9       30.28R WCI  34
Westfield      SUNNY     41  34  76 CALM      30.33R
Provincetown   MOSUNNY   51  33  50 N14       30.27R
Nantucket      MOSUNNY   51  35  54 N17       30.25R
$$

ANZ330-335-338-340-345-350-353-355-171400-
COASTAL MARINE OBSERVATIONS


STATION/POSITION TIME  SKY/WX   TEMP    WIND        PRES    VSBY  WAVE
                                AIR SEA DIR/SP/G                  HT/PER
                 (UTC)          (F)     (DEG/KT/KT) (MB)    (MI)  (FT/S)
NY HARB ENTRANCE 1150            49 65  360/ 16/ 21 1025.5          3/ 3
20 S FIRE ISLAND 1150            50 64   20/ 16/ 17 1025.6          4/ 4
GREAT SOUTH BAY  1215            47 62   10/ 10/ 14   N/A
15 E BARNEGAT LI 1230               66                N/A           5/ 5
HUDSON CANYON    1150            53 64   20/ 16/ 21 1023.7          6/ 6
KINGS POINT      1230            46 64   60/ 12/ 17 1028.4
EXECUTION ROCKS  1230            46      30/ 12/ 17   N/A
WESTERN LI SOUND 1149            45     360/ 12/ 16   N/A           0
CENTRAL LI SOUND NOT AVBL
EASTERN LI SOUND NOT AVBL
ROBBINS REEF     1236            45     340/  9/ 11 1028.1
$$


>>>>>>>>>>>>>>>>>>>>>>>>>>>> KEY <<<<<<<<<<<<<<<<<<<<<<<<<<<
>                                                          <
>     SKY/WX - Sky Condition/Present Weather               <
>     TMP    - Temperature in Fahrenheit                   <
>     DP     - Dew Point in Fahrenheit                     <
>     RH     - Relative Humidity in Percent                <
>     WIND   - Direction (from) and Speed in MPH           <
>     PRES   - Mean Sea Level Pressure (inches of Hg)      <
>     WCI    - Wind Chill Index                            <
>     VSB    - VISIBILITY IN MILES                         <
>     HX     - HEAT INDEX                                  <
>     TC     - TEMPERATURE IN CELSIUS                      <
>     VRB    - VARIABLE WIND DIRECTION                     <
>                                                          <
>>>>>>>>>>>>>>>>>>>>>>>>>>>> KEY <<<<<<<<<<<<<<<<<<<<<<<<<<<



USA.gov is the U.S. government's official web portal to all federal, state and local government web resources and services.